Change the Weather History Date:

Friday, January 18, 2013

  Actual Average Record
Temperature  
Mean Temperature 18 °F -  
Max Temperature 23 °F 28 °F 60 °F (1990)
Min Temperature 12 °F 12 °F -14 °F (1974)
Degree Days  
Heating Degree Days 48    
Moisture  
Dew Point -6 °F    
Average Humidity 36    
Maximum Humidity 51    
Minimum Humidity 29    
Precipitation  
Precipitation 0.00 in - - ()
Snow  
Snow 0.00 in - - ()
Snow Depth 4.00 in    
Sea Level Pressure  
Sea Level Pressure 30.30 in    
Wind  
Wind Speed 11 mph (West)    
Max Wind Speed 17 mph    
Max Gust Speed 31 mph    
Visibility 10 miles    
Events      
Averages and records for this station are not official NWS values.
T = Trace of Precipitation, MM = Missing Value Source: NWS Daily Summary

Daily Weather History Graph

Daily Weather History Graph

Search for Another Location

Airport or City:

Trip Planner

Search our weather history database for the weather conditions in past years. The results will help you decide how hot, cold, wet, or windy it might be!

Date:

Astronomy

Jan. 18, 2013 Rise Set
Actual Time 7:10 AM EST 4:37 PM EST
Civil Twilight 6:38 AM EST 5:09 PM EST
Nautical Twilight 6:04 AM EST 5:43 PM EST
Astronomical Twilight 5:30 AM EST 6:17 PM EST
Moon 10:33 AM EST (1/18) No Moon Set
Length of Visible Light 10h 30m
Length of Day
9h 27m
Waxing Crescent, 47% of the Moon is Illuminated
Jan 18
Waxing Crescent
Jan 18
First Quarter
Jan 26
Full
Feb 3
Last Quarter
Feb 10
New

Hourly Weather History & Observations

Time (EST) Temp. Windchill Dew Point Humidity Pressure Visibility Wind Dir Wind Speed Gust Speed Precip Events Conditions
12:55 AM 23.5 °F 14.5 °F 5.7 °F 47% 30.09 in 10.0 mi North 8.1 mph - N/A   Overcast
1:55 AM 21.7 °F 10.8 °F 3.0 °F 45% 30.08 in 10.0 mi NNW 10.4 mph - N/A   Overcast
2:55 AM 20.3 °F 9.0 °F -2.2 °F 37% 30.13 in 10.0 mi NNW 10.4 mph - N/A   Overcast
3:55 AM 19.2 °F 5.8 °F -3.6 °F 36% 30.10 in 10.0 mi WNW 13.8 mph - N/A   Overcast
4:55 AM 17.1 °F 2.5 °F -8.9 °F 31% 30.14 in 10.0 mi WNW 15.0 mph 19.6 mph N/A   Overcast
5:55 AM 14.5 °F -0.7 °F -8.9 °F 35% 30.19 in 10.0 mi NW 15.0 mph - N/A   Scattered Clouds
6:55 AM 12.9 °F -1.6 °F -10.8 °F 34% 30.24 in 10.0 mi WNW 12.7 mph - N/A   Scattered Clouds
7:55 AM 12.4 °F -2.9 °F -11.4 °F 34% 30.27 in 10.0 mi WNW 13.8 mph 21.9 mph N/A   Partly Cloudy
8:55 AM 13.3 °F -2.9 °F -13.0 °F 30% 30.30 in 10.0 mi WNW 16.1 mph 25.3 mph N/A   Partly Cloudy
9:55 AM 14.4 °F 0.2 °F -12.6 °F 29% 30.33 in 10.0 mi WNW 12.7 mph - N/A   Partly Cloudy
10:55 AM 15.4 °F -0.6 °F -11.0 °F 30% 30.33 in 10.0 mi WNW 17.3 mph 24.2 mph N/A   Partly Cloudy
11:55 AM 18.0 °F 2.6 °F -9.8 °F 29% 30.32 in 10.0 mi WNW 17.3 mph 31.1 mph N/A   Partly Cloudy
12:55 PM 19.4 °F 4.5 °F -7.4 °F 30% 30.32 in 10.0 mi West 17.3 mph 28.8 mph N/A   Partly Cloudy
1:55 PM 19.9 °F 5.2 °F -8.1 °F 29% 30.33 in 10.0 mi West 17.3 mph 25.3 mph N/A   Partly Cloudy
2:55 PM 21.0 °F 11.4 °F -6.2 °F 30% 30.36 in 10.0 mi West 8.1 mph - N/A   Partly Cloudy
3:55 PM 21.0 °F 9.3 °F -6.7 °F 29% 30.36 in 10.0 mi West 11.5 mph 18.4 mph N/A   Partly Cloudy
4:55 PM 19.4 °F 7.9 °F -7.6 °F 30% 30.38 in 10.0 mi WNW 10.4 mph - N/A   Clear
5:55 PM 18.7 °F 13.5 °F -4.7 °F 36% 30.40 in 10.0 mi WSW 3.5 mph - N/A   Clear
6:55 PM 14.2 °F 5.3 °F -4.2 °F 44% 30.42 in 10.0 mi SSE 5.8 mph - N/A   Clear
7:55 PM 15.1 °F 7.7 °F -5.3 °F 40% 30.42 in 10.0 mi SSW 4.6 mph - N/A   Clear
8:55 PM 15.1 °F 5.2 °F -3.6 °F 43% 30.43 in 10.0 mi SSW 6.9 mph - N/A   Clear
9:55 PM 15.1 °F 6.4 °F -2.4 °F 46% 30.42 in 10.0 mi SSW 5.8 mph - N/A   Clear
10:55 PM 15.3 °F 9.6 °F -0.9 °F 49% 30.40 in 10.0 mi South 3.5 mph - N/A   Partly Cloudy
11:55 PM 17.4 °F 10.4 °F 1.9 °F 51% 30.38 in 10.0 mi South 4.6 mph - N/A   Overcast